Find Starlink 32889

NORAD ID: 62961 Int'l Des: 2025-029 Owner: SPXS Country: US Constellation: starlink operational
LEOCIRCULAR

Live Position

Loading 3D Globe...

About Starlink 32889

Description loading...

Upcoming Passes

Passes for default location (London). Set your location on the main map for personalized predictions.

Altitude History

Loading altitude history...

Two-Line Element Set

1 62961U 25029P 26125.77691934 .00024153 00000-0 82457-3 0 9998
2 62961 53.1583 327.5952 0001257 130.1343 229.9768 15.30215609 70051
Epoch: May 5, 2026 • Age: 25 hours

Current Status

Altitude 476.0 km
Velocity 7.63 km/s
Sub-Earth Point 23.03°N, 178.7°E
Launch Date Feb 11, 2025
Age 1.2 years
Type internet

Technical Details

Classification Payload
Mass 730.00 kg
Dry Mass 700.00 kg
Total Mass 730.00 kg
Length 0.30 m
Diameter 4.10 m
Span 29.00 m
Shape Box + pan
Manufacturer SPXS
Bus Type Starlink V2M
Phase Status In Orbit
Owner/State SPXS/US

Most Searched